Location: Krakow
(50.0830°N, 19.9170°E)
Time: 18:11:20
(UTC+02:00)

Vanguard 1 Rocket - Pass Details

Date: 18 December 2023
Orbit: 650 x 4218 km, 34.3° (Epoch: 09 October)

Event Time Altitude Azimuth Distance (km) Brightness Sun altitude
Rises 07:00:19 0° 277° (W) 8,260 11.7 -5.4°
Reaches altitude 10° 07:07:39 10° 269° (W) 6,863 11.4 -4.4°
Maximum altitude 07:23:16 28° 221° (SW) 4,248 10.8 -2.3°
Drops below altitude 10° 07:33:24 10° 169° (S) 4,359 11.7 -1.0°
Sets 07:36:46 0° 157° (SSE) 4,906 12.4 -0.6°
